Regional Weather Roundup
Issued by NWS Burlington, VT

Current Version | Previous Version | Text Only | Print | Product List | Glossary On
Versions: 1 2 3 4 5 6 7 8 9 10 11 12 13 14 15 16 17 18 19 20 21 22 23 24 25 26 27 28 29 30 31 32 33 34 35 36 37 38 39 40 41 42 43 44 45 46 47 48 49 50
000
ASUS41 KBTV 280310
RWRBTV
VERMONT REGIONAL WEATHER ROUNDUP
NATIONAL WEATHER SERVICE BURLINGTON VT
1100 PM EDT WED JUL 27 2016

NOTE: "FAIR" INDICATES FEW OR NO CLOUDS BELOW 12,000 FEET WITH NO
SIGNIFICANT WEATHER AND/OR OBSTRUCTIONS TO VISIBILITY.

* THESE REPORTS ARE NOT UNDER NWS QUALITY CONTROL AND/OR DO NOT
  REPORT WEATHER SUCH AS PRECIPITATION AND FOG.

VTZ001>019-280400-
_____VERMONT_____


CITY           SKY/WX    TMP DP  RH WIND       PRES   REMARKS
BURLINGTON     FAIR      75  65  70 CALM      29.87R
MONTPELIER     FAIR      68  62  81 CALM      29.95S
MORRISVILLE    FAIR      64  62  93 S3        29.91S
ST. JOHNSBURY*   N/A     69  63  81 MISG      29.88S
LYNDONVILLE*   FAIR      69  62  80 CALM      29.93S
MIDDLEBURY*    FAIR      72  62  71 SE5       29.89S
RUTLAND*       FAIR      69  63  81 SE6       29.93R
SPRINGFIELD    FAIR      67  62  84 CALM      29.91S
HIGHGATE*      CLOUDY    72  67  85 CALM      29.85F
NEWPORT*       FAIR      66  64  93 SW5       29.91R
BENNINGTON       N/A     67  58  72 CALM      29.93
SUTTON*          N/A     66 N/A N/A MISG        N/A

_____LAKE CHAMPLAIN_____


CITY           SKY/WX    TMP DP  RH WIND       PRES   REMARKS
BURTON ISLAND*   N/A     77  68  73 SE6         N/A
COLCHESTER RF*   N/A     81  66  61 NE1         N/A
DIAMOND ISL*     N/A     77  64  65 NW1         N/A

$$

NYZ007-026>031-035-052-083-087-280400-
_____NORTHERN NEW YORK_____


CITY           SKY/WX    TMP DP  RH WIND       PRES   REMARKS
PLATTSBURGH    CLEAR     74  62  66 VRB3      29.85S
SARANAC LAKE   CLOUDY    65  56  72 SW3       29.94S
MASSENA        MOCLDY    73  60  63 S8        29.85F
OGDENSBURG*    CLEAR     72  64  78 SW6       29.86S
POTSDAM*       CLEAR     73  64  73 SW3       29.87F
WATERTOWN      MOCLDY    73  62  68 SW5       29.88S
FT DRUM        CLOUDY    72  62  71 S8        29.88F
ALBANY         MOCLDY    76  61  59 CALM      29.90F
GLENS FALLS    CLOUDY    70  63  78 CALM      29.89S

$$
NHZ002-005-011-280400-
_____NEW HAMPSHIRE_____


CITY           SKY/WX    TMP DP  RH WIND       PRES   REMARKS
LEBANON        CLEAR     70  63  78 CALM      29.90R
KEENE          CLEAR     67  60  78 CALM      29.92S
MT WASHINGTON  PTCLDY    54  52  94 W23         N/A
PLYMOUTH       FAIR      65  63  93 CALM      29.90S
WHITEFIELD     CLEAR     65  61  87 CALM      29.91S

$$

_____REGIONAL QUEBEC LOCATIONS_____


CITY           SKY/WX    TMP DP  RH WIND       PRES   REMARKS
MONTREAL       PTCLDY    79  64  61 SW9       29.83S
QUEBEC CITY    PTCLDY    66  63  88 N5        29.83S
SHERBROOKE     MOCLDY    70  64  83 CALM      29.86F

_____REGIONAL ONTARIO LOCATIONS_____


CITY           SKY/WX    TMP DP  RH WIND       PRES   REMARKS
OTTAWA         PTCLDY    70  64  83 S3        29.86S

______KEY______
VSB  - VISIBILITY IN MILES
WCI  - WIND CHILL INDEX
HX   - HEAT INDEX
$$
NNNN



USA.gov is the U.S. government's official web portal to all federal, state and local government web resources and services.